STARLINK-2380, 47799

Orbit data source: Space-Track

STARLINK-2380, 47799 is a payload satellite owned by SpaceX/Seattle (US) in LEO that was launched on Thu, 11 Mar 2021 UTC via an FALCON 9 launch vehicle from the Air Force Eastern Test Range (AFETR). Payload-class satellites include a variety of spacecraft equipped with specific instruments for various scientific and technological missions. These include communications satellites like Starlink; space stations such as the ISS; scientific satellites like the Hubble; Earth observation satellites from companies like Planet Labs, Umbra, and HawkEye 360; GPS; miniature CubeSats for education and research; and military/defense satellites.

Loading next visibility...
Identifier
47799, 2021-018N
Orbit
LEO
Country
Flag of USUS
Related business
Manufacturer
SpaceX/Seattle
Mission
Operational Commercial Communications
Bus & Motor
STARLINK, Unknown motor
Mass
260 kg wet, ~248 kg dry
Launch date (UTC)
2021-03-11 (5 years ago)
Launch vehicle
FALCON 9
Launch site
Air Force Eastern Test Range (AFETR)
Object type
Payload
Rocket body
Debris
Shape & HBR
Box + 1 Pan, 10.1 m
Radar Cross Section
13.562 m², Large (>1 m²)

Expand to show TLE details & history
Last TLE update: 18 hours ago

TLE from 18 hours ago
0 STARLINK-2380
1 47799U 21018N   25292.01514812  .00002864  00000-0  21102-3 0  9999
2 47799  53.0547 147.6201 0001591  90.3082 269.8090 15.06407693255514
Epoch: 2025-10-19T00:21Z
TLE epoch observation values (Epoch: 2025-10-19T00:21:48.797Z)
Latitude
0.00003°
Longitude
114.42892°
Altitude
548.071 km
Speed
7.589 km/s
True Right ascension
09h 50m 28s
True Declination
0° 00' 00"
Sunlit
Object was in daylight at epoch
Visualization orbit readout
Latitude
Unknown
Longitude
Unknown
Altitude
Unknown
Speed
Unknown
Apparent Right ascension
Unknown
Apparent Declination
Unknown
Sunlit
N/A
Visualization observer readout
Local Sidereal Time
13:27:38
Azimuth
Unknown
Elevation
Unknown
Doppler factor
Unknown
Orbital elements
Apogee altitude
548.561 km
Perigee altitude
546.357 km
Semi-major axis
6,925.596 km
Eccentricity
0.00016
Inclination
53.0547°
RAAN
147.6201°
Arg. of periapsis
90.3082°
True anomaly
269.79077°
Mean anomaly
269.809°
Eccentric anomaly
269.79988°
Mean motion
3.7658 °/min
Orbital period
95.6 mins
BSTAR
0.00021102
Loading maneuver chart data...
Computing Atmospheric mass density...

Documentation

Showing up to 5 results
|